Location: Bari
(41.1330°N, 16.8500°E)
Time: 12:56:04
(UTC+02:00)

ISS - Visible Passes

Search period start: 11 May 2021 00:00
Search period end: 21 May 2021 00:00
Orbit: 417 x 422 km, 51.6° (Epoch: 11 May)

Date Brightness Start Highest point End Pass type
(mag) Time Alt. Az. Time Alt. Az. Time Alt. Az.
11 May -0.8 02:04:21 15° NNW 02:04:40 15° N 02:06:42 10° NNE visible
11 May -0.8 03:40:13 10° NNW 03:42:29 17° NNE 03:44:47 10° NE visible
12 May -0.5 01:18:17 14° NNE 01:18:17 14° NNE 01:19:17 10° NNE visible
12 May -0.6 02:52:48 10° NNW 02:54:49 15° N 02:56:50 10° NE visible
12 May -2.0 04:29:14 10° NW 04:32:23 35° NNE 04:35:31 10° E visible
13 May -0.5 02:05:16 10° NNW 02:07:08 14° N 02:09:00 10° NE visible
13 May -1.4 03:41:55 10° NW 03:44:49 25° NNE 03:47:42 10° E visible
14 May -0.5 01:18:39 13° NNW 01:19:26 14° N 01:21:18 10° NNE visible
14 May -1.0 02:54:37 10° NNW 02:57:13 20° NNE 02:59:48 10° ENE visible
14 May -3.8 04:31:01 10° NW 04:34:25 88° NE 04:37:47 10° SE visible
14 May -3.0 21:14:29 10° SSW 21:17:26 29° SE 21:20:25 10° ENE visible
14 May -2.2 22:51:03 10° W 22:54:11 36° NNW 22:55:36 24° NNE visible
15 May -0.6 00:29:43 10° NW 00:31:44 15° N 00:33:46 10° NNE visible
15 May -0.7 02:07:17 10° NNW 02:09:34 17° NNE 02:11:51 10° NE visible
15 May -3.0 03:43:38 10° NW 03:46:58 53° NNE 03:50:16 10° ESE visible
15 May -3.0 22:03:22 10° WSW 22:06:40 54° NNW 22:10:00 10° NE visible
15 May -0.7 23:41:46 10° NW 23:44:04 17° NNW 23:46:21 10° NNE visible
16 May -0.5 01:19:52 10° NNW 01:21:53 15° N 01:23:54 10° NE visible
16 May -2.1 02:56:18 10° NW 02:59:27 35° NNE 03:02:35 10° E visible
16 May -3.0 04:33:12 10° WNW 04:36:13 30° SW 04:39:13 10° SSE visible
16 May -3.8 21:15:52 10° SW 21:19:14 90° NNW 21:22:36 10° NE visible
16 May -1.0 22:53:49 10° WNW 22:56:25 20° NNW 22:59:01 10° NNE visible
17 May -0.5 00:32:20 10° NNW 00:34:12 14° N 00:36:03 10° NE visible
17 May -1.5 02:08:59 10° NW 02:11:53 26° NNE 02:14:46 10° E visible
17 May -3.7 03:45:34 10° WNW 03:48:52 53° SW 03:52:10 10° SE visible
17 May -1.4 22:05:56 10° W 22:08:48 26° NNW 22:11:42 10° NE visible
17 May -0.5 23:44:38 10° NW 23:46:30 14° N 23:48:21 10° NNE visible
18 May -0.8 01:21:41 10° NNW 01:22:58 16° NNW 01:22:58 16° NNW visible
18 May -2.0 21:18:07 10° W 21:21:15 35° NNW 21:24:23 10° NE visible
18 May -0.6 22:56:47 10° NW 22:58:47 15° N 23:00:49 10° NNE visible
19 May -0.8 00:34:21 10° NNW 00:36:34 17° NNE 00:36:34 17° NNE visible
19 May -0.7 22:08:51 10° NW 22:11:07 17° NNW 22:13:23 10° NNE visible
19 May -0.7 23:46:56 10° NNW 23:48:57 15° N 23:50:23 12° NE visible
20 May -1.0 21:20:53 10° WNW 21:23:28 20° NNW 21:26:04 10° NNE visible
20 May -0.6 22:59:24 10° NNW 23:01:15 14° N 23:03:06 10° NE visible
